User: anonymous   Login
Location: Unspecified
(0.0000°N, 0.0000°E)
Time: 09:21:57
(UTC+00:00)
Language:

AEROCUBE 2 - Orbit

View from above orbital plane
View from above orbital plane
View from above satellite
View from above satellite

Ground track
Ground track

The orbit data is extracted from the following two-line orbital elements,

1 31133U 07012R   17086.81853572 +.00000294 +00000-0 +69945-4 0  9994
2 31133 098.0210 045.3636 0081798 034.5393 326.1083 14.58817171528573
Epoch (UTC): 27 March 2017 19:38:41
Eccentricity: 0.0081798
inclination: 98.0210°
perigee height: 639 km
apogee height: 755 km
right ascension of ascending node: 45.3636°
argument of perigee: 34.5393°
revolutions per day: 14.58817171
mean anomaly at epoch: 326.1083°
orbit number at epoch: 52857

The dashed part of the orbit path shows where the satellite is in the earth's shadow,  

DLR